Temperature
18 19 19 20 20 20 22 25 26 25 25 25 25 25 24 23 21 18 18 18 18 17 17 16 15 14 14 13 13 13 12 12 12 11 11 11 11 11 11 11 11 11 11 11 11 11 12 12 12
18 19 19 20 20 21 23 25 25 25 25 24 24 25 25 23 21 20 18 18 18 17 17 16 15 14 14 13 13 13 12 12 12 11 11 11 11 11 11 11 11 11 11 11 11 11 12 12 12
19 19 20 21 21 22 24 25 25 25 24 24 24 24 24 22 21 20 19 18 17 17 17 16 15 14 14 13 13 12 12 12 11 11 11 11 11 11 11 11 11 11 11 11 11 11 12 12 12
19 19 21 21 22 24 25 25 25 24 24 24 25 24 23 22 21 20 19 18 17 17 16 16 15 14 14 13 13 12 12 12 11 11 11 11 11 11 11 11 11 11 11 11 11 11 12 12 12
19 20 20 21 23 25 25 25 25 24 24 24 24 24 21 21 21 20 19 18 17 16 16 16 15 15 14 13 13 12 12 12 11 11 11 11 11 11 11 11 11 11 11 11 11 11 12 12 12
20 21 21 21 23 24 25 25 25 25 25 25 24 24 20 20 21 20 19 18 17 16 16 16 15 15 14 13 13 12 12 12 11 11 11 10 10 10 11 11 11 11 11 11 11 11 12 12 12
20 20 20 22 23 24 25 24 24 24 25 25 24 24 20 19 20 20 19 18 17 16 16 16 15 14 14 13 13 12 12 12 11 11 11 10 10 10 10 11 11 11 11 11 11 11 11 11 11
20 20 21 22 23 23 24 24 24 24 24 24 24 23 20 20 20 19 18 17 16 16 16 16 15 14 14 13 12 12 12 11 11 11 11 11 10 10 10 10 11 11 11 11 11 11 11 11 10
19 19 20 22 23 23 24 23 23 23 23 23 23 22 21 20 19 19 18 17 16 15 15 15 15 14 13 13 12 12 11 11 11 11 10 10 10 10 10 10 10 10 10 10 10 10 10 10 10
20 18 21 23 23 23 23 23 23 23 23 23 22 22 21 20 20 19 18 18 17 16 15 15 14 14 13 12 12 12 11 11 11 11 10 10 10 9 9 9 10 10 10 10 10 9 9 9 9
21 20 21 22 22 22 22 22 23 22 21 23 23 21 21 20 19 19 18 18 17 16 15 14 14 13 13 12 12 12 11 11 11 10 10 10 9 9 9 9 9 9 9 9 9 9 9 9 8
21 21 22 22 21 21 21 22 22 22 22 22 22 22 21 20 19 19 18 18 17 16 15 14 14 13 13 12 12 12 11 11 11 10 10 10 10 9 9 9 9 9 9 9 8 8 8 8 8
20 21 22 21 21 21 21 21 21 21 22 22 22 21 20 20 19 19 19 18 17 16 16 15 14 13 13 12 12 12 11 11 11 10 10 10 10 10 9 9 9 9 9 9 8 8 8 8 8
21 21 21 21 21 21 20 20 20 21 21 21 21 21 20 20 20 19 19 18 17 17 16 15 14 13 13 12 12 12 12 11 11 10 10 10 10 10 9 9 9 9 9 8 8 8 8 8 8
21 20 20 21 21 21 20 19 19 21 21 21 21 21 20 20 20 19 19 18 18 17 16 15 14 13 13 12 12 12 11 11 11 11 10 10 10 10 10 9 9 9 9 9 8 8 8 8 8
20 19 18 20 20 20 19 17 20 22 21 21 21 21 21 20 20 20 19 19 18 17 16 15 14 14 13 13 12 12 11 11 11 11 11 10 10 10 10 9 9 9 9 9 8 8 8 8 8
18 18 18 20 20 20 18 18 20 22 21 21 21 21 21 21 20 20 19 19 18 17 16 15 15 14 13 13 12 12 11 11 11 11 11 10 10 10 10 9 9 9 9 9 9 8 8 8 8
18 18 19 20 20 20 18 18 19 21 21 21 21 21 21 21 21 20 19 19 18 17 16 15 15 14 13 12 12 11 11 11 11 11 11 10 10 10 10 9 9 9 9 9 9 8 8 8 8
19 19 19 20 21 20 18 18 19 21 21 21 21 21 21 21 21 20 19 18 18 17 16 15 15 14 13 12 12 12 11 11 11 11 11 11 10 10 10 9 9 9 9 9 9 8 8 8 8
18 18 18 20 21 20 18 18 19 19 20 21 21 21 21 21 21 20 19 18 17 17 16 15 15 14 13 13 12 12 12 11 11 11 11 11 10 10 10 10 9 9 9 9 9 9 8 8 8
18 17 18 18 19 19 18 17 19 20 21 21 21 21 21 21 20 20 19 18 17 16 16 16 15 14 13 13 12 12 11 11 11 11 11 10 10 10 10 10 9 9 9 9 9 8 8 8 7
17 19 19 18 17 17 18 16 18 19 20 20 21 21 21 21 20 19 18 17 17 16 16 15 15 14 13 12 12 12 11 11 11 11 11 10 10 10 10 10 10 9 9 9 9 8 8 8 7
18 19 18 18 17 16 16 16 17 19 19 20 20 21 20 20 19 19 18 17 16 16 15 15 14 14 13 12 12 12 11 11 11 11 11 10 10 10 10 10 10 9 9 9 9 8 8 8 7
18 18 17 17 16 14 16 16 17 19 20 20 20 20 20 19 19 18 17 17 16 15 15 14 14 14 13 12 12 11 11 11 11 10 10 10 10 10 10 10 10 9 9 9 9 8 8 8 7
17 16 14 14 13 14 17 17 17 20 20 20 20 20 19 19 18 17 16 16 15 15 14 14 14 13 13 12 12 11 11 11 11 11 10 10 10 10 10 10 10 9 9 9 9 8 8 7 7
16 16 15 14 15 16 17 16 18 21 20 21 20 19 19 18 17 16 16 15 15 14 14 14 14 13 13 12 12 11 11 11 10 10 10 10 10 10 10 10 10 9 9 9 8 8 8 7 7
16 16 17 16 16 15 17 18 19 20 19 19 19 19 18 17 17 16 15 14 14 14 14 14 14 13 13 12 12 11 11 11 10 10 10 10 10 10 10 10 9 9 9 9 8 8 7 7 7
17 16 15 15 14 14 16 17 17 18 18 18 18 18 18 17 16 16 15 14 14 13 13 13 13 13 13 12 12 11 11 11 10 10 10 10 10 10 10 10 9 9 9 8 8 8 7 7 6
16 16 16 15 15 15 15 17 19 19 19 18 18 19 18 17 16 16 15 14 14 13 13 13 13 12 12 12 12 11 11 11 10 10 10 10 10 10 10 10 9 9 9 8 8 7 7 6 6
16 16 16 15 15 15 15 16 20 19 18 18 18 18 18 17 16 16 15 14 14 13 13 13 12 12 12 12 12 11 11 11 10 10 10 10 10 10 10 9 9 9 8 8 8 7 7 6 6
Wind_Speed
12 13 8 3 4 5 6 2 4 6 4 8 7 4 6 9 7 8 6 11 16 16 21 20 19 18 17 16 15 15 14 14 14 14 14 14 14 14 14 15 15 15 15 15 16 16 16 16 16
12 8 5 4 5 6 5 4 4 7 8 8 5 1 3 8 9 10 7 12 16 18 21 19 19 18 17 16 16 15 15 14 14 14 14 13 13 13 13 13 14 14 14 14 14 14 14 15 15
10 8 4 4 5 5 2 7 7 10 8 5 4 1 5 8 11 8 10 14 14 17 20 20 20 18 18 17 16 16 15 15 14 14 13 13 13 13 12 12 13 13 13 13 13 13 13 13 13
6 4 5 6 8 2 3 6 9 9 6 2 2 6 7 7 6 10 13 13 14 13 20 22 21 19 18 17 17 17 16 15 14 13 13 12 12 12 12 12 12 12 12 12 12 12 12 12 12
4 4 6 7 7 1 3 6 5 7 8 6 3 4 8 6 12 14 12 13 14 13 20 22 20 19 19 18 17 16 16 15 14 13 13 12 12 11 11 11 11 11 11 11 10 10 10 10 10
4 4 6 8 6 3 4 5 3 6 7 7 3 1 7 9 12 12 11 12 12 13 19 20 20 20 19 18 17 16 16 15 14 13 13 12 11 10 10 10 9 9 9 9 9 9 9 9 8
5 5 8 8 4 5 4 5 6 6 5 6 3 1 9 9 11 12 11 11 12 13 17 18 18 19 19 18 18 17 16 15 14 14 13 12 11 10 9 9 8 8 7 7 7 7 6 6 6
4 5 8 8 4 4 6 3 1 3 1 5 2 1 9 9 11 11 10 10 11 12 13 15 18 18 17 17 18 17 16 16 15 14 14 12 11 9 9 8 7 6 5 5 4 4 3 3 2
4 5 6 5 3 1 7 4 3 2 5 2 3 6 9 12 11 11 9 8 10 11 12 13 14 17 18 18 17 17 17 16 16 15 14 13 12 11 10 9 7 5 4 3 2 1 1 2 3
5 5 6 3 4 3 4 3 3 4 6 5 5 8 10 10 11 12 11 11 12 12 12 12 12 14 17 17 17 16 16 16 16 15 15 13 11 11 10 10 8 6 4 3 3 3 5 6 6
7 7 6 3 4 6 3 2 3 5 7 7 5 10 12 10 10 11 12 12 12 12 12 13 12 14 14 12 15 13 14 15 15 16 15 12 10 10 10 10 9 8 7 6 6 6 7 6 3
9 9 7 3 2 1 5 5 6 7 8 6 3 4 11 12 12 12 12 12 12 12 13 12 11 11 13 14 13 12 11 12 12 14 15 11 8 7 8 8 9 9 7 6 5 6 6 5 4
12 10 7 4 2 4 6 8 8 10 10 7 3 2 8 11 12 12 11 11 11 13 14 13 12 12 11 10 10 11 10 11 13 14 14 12 8 5 6 6 6 6 5 5 4 5 4 3 4
7 8 8 7 7 6 7 10 9 10 9 7 6 8 9 11 11 11 11 12 13 13 14 13 13 12 11 9 8 8 11 12 13 13 14 14 10 7 6 4 4 4 4 3 3 4 3 3 3
7 8 9 9 9 7 4 10 13 13 9 9 10 10 11 11 11 11 12 11 12 13 14 14 14 13 13 11 9 9 11 13 11 13 15 14 12 9 7 4 3 4 4 3 3 4 3 3 3
7 9 9 9 9 7 5 10 9 7 9 10 10 10 10 11 12 11 11 11 11 12 14 15 13 14 14 11 10 9 11 11 10 13 13 14 13 11 8 4 3 5 4 2 1 1 2 3 3
10 10 11 9 10 9 9 9 9 6 8 10 10 11 10 10 11 11 11 12 12 13 14 15 14 14 14 12 9 9 10 10 11 12 12 13 13 12 8 5 4 5 3 2 1 1 1 2 3
9 12 10 9 8 9 10 11 11 10 11 11 11 11 10 10 11 10 10 11 11 11 13 14 14 13 13 11 8 7 7 7 9 10 11 12 12 12 9 6 5 5 2 2 1 2 1 1 2
11 9 8 7 3 6 9 12 13 12 12 12 12 11 11 11 9 10 10 10 10 11 12 14 14 13 12 11 10 9 8 7 6 7 12 13 12 12 9 5 5 4 3 3 2 1 1 1 1
15 13 11 8 5 4 8 13 14 14 14 13 11 10 10 8 7 9 10 10 11 11 11 12 14 14 13 11 10 8 7 6 6 6 9 12 12 12 9 6 4 4 3 2 2 1 1 1 1
15 13 11 9 7 6 9 11 12 11 11 9 9 9 9 9 7 8 11 11 10 11 12 11 13 13 13 11 9 7 6 5 4 6 6 8 12 11 10 8 6 5 4 3 3 2 2 0 1
13 11 10 9 7 6 6 7 8 9 9 9 9 8 7 7 6 7 10 11 11 10 10 10 12 12 12 12 12 12 9 7 7 7 6 7 10 11 11 9 7 5 4 4 3 3 2 2 1
9 4 6 7 8 9 10 9 8 9 9 7 6 5 5 4 5 7 9 10 10 9 9 9 10 11 11 12 13 12 9 7 6 8 9 8 6 9 10 9 7 6 4 4 4 3 2 2 2
8 4 3 5 5 10 12 10 8 7 7 4 4 4 3 5 5 5 7 9 9 8 8 8 10 10 11 12 12 12 11 10 10 10 9 8 6 6 8 9 7 6 5 5 4 3 3 2 2
10 7 5 6 7 9 9 9 8 5 3 4 3 2 3 5 5 6 8 10 10 10 10 9 11 11 11 12 12 12 12 12 12 11 10 9 7 5 8 6 6 5 6 6 5 4 3 3 3
15 14 9 7 6 4 6 8 6 4 5 5 5 4 3 5 6 7 8 9 10 11 11 11 11 11 12 12 12 11 11 9 8 10 9 9 7 7 9 8 7 7 8 7 6 4 4 4 4
14 15 12 6 7 5 6 7 7 6 6 6 7 6 5 5 6 7 8 9 10 11 11 11 12 11 12 12 11 10 11 10 9 10 8 7 7 7 9 8 8 7 7 7 6 4 5 5 5
11 11 7 8 6 7 8 11 8 10 9 8 7 7 6 7 7 8 8 9 10 11 10 11 11 11 11 11 10 9 9 9 10 9 10 9 9 9 10 9 8 8 7 7 6 5 5 5 5
14 14 10 9 8 5 5 6 5 8 9 9 8 8 8 8 7 7 7 8 9 10 11 11 11 10 10 11 10 9 9 9 9 9 10 9 9 10 11 10 9 8 8 7 6 6 6 6 6
17 17 15 11 9 9 6 5 3 8 9 9 8 7 7 8 7 7 7 8 9 10 10 11 11 11 11 10 10 9 9 9 10 9 9 10 10 10 10 9 9 9 8 8 8 7 7 7 7
Wind_Direction
280 258 244 245 242 236 242 179 102 99 82 66 54 18 30 46 50 108 152 136 125 135 142 151 150 146 142 135 131 128 122 115 108 101 96 92 89 84 81 78 77 74 72 71 71 70 69 68 67
282 258 243 240 243 237 209 140 129 111 90 87 95 218 106 85 91 115 141 126 132 137 144 152 151 148 144 138 134 131 126 119 113 107 101 97 93 89 85 82 80 78 76 73 72 71 71 69 68
267 256 240 231 243 255 147 135 126 94 104 141 150 45 55 91 114 129 132 131 135 138 146 148 151 150 146 141 138 133 129 123 117 112 106 101 97 94 91 87 84 82 80 77 74 72 71 70 67
253 231 244 248 252 267 48 111 113 122 135 188 180 130 86 55 87 116 128 138 138 139 140 146 152 151 148 143 140 136 133 128 123 119 114 109 104 100 96 93 89 86 84 81 77 74 71 69 66
245 243 236 249 254 173 74 71 107 158 160 179 248 110 99 84 99 119 139 144 142 141 138 148 154 154 151 147 145 142 138 135 131 126 123 117 111 107 102 99 95 91 87 83 80 75 72 68 64
242 245 241 234 219 163 131 114 197 222 168 149 197 158 109 129 123 137 146 147 144 139 139 149 155 155 154 152 151 148 144 140 138 134 130 124 120 116 111 106 100 94 89 84 80 76 71 65 60
260 262 267 266 201 165 143 135 209 233 192 155 167 148 121 138 135 143 147 152 143 139 141 149 156 157 156 155 155 152 149 146 145 141 137 133 129 125 120 114 108 101 94 87 80 75 70 63 56
284 279 260 268 253 167 125 138 277 311 304 87 84 330 126 139 142 144 150 153 143 142 146 153 159 160 159 157 157 155 153 151 149 145 142 140 138 136 133 127 121 114 106 95 82 74 69 60 52
279 264 259 253 269 136 121 167 159 5 318 79 85 65 114 133 144 144 149 153 151 154 154 158 163 164 163 161 161 158 158 156 152 150 150 152 158 157 154 140 142 140 136 127 116 97 263 262 252
224 253 266 330 358 15 117 189 170 197 244 222 159 116 128 145 155 161 169 173 169 169 165 164 167 165 165 165 161 164 165 163 163 161 165 176 172 160 154 152 163 173 183 195 212 241 263 263 242
221 245 271 303 3 4 346 261 237 238 247 244 217 158 155 165 172 181 186 184 179 174 171 169 170 166 165 162 163 169 168 170 174 170 175 179 161 150 149 161 178 195 206 216 217 239 249 265 271
245 250 263 271 76 305 287 286 268 249 253 276 313 131 157 175 187 194 196 190 179 175 177 173 168 164 166 164 167 167 166 172 174 176 177 173 164 166 164 175 181 194 203 210 221 240 249 260 273
237 252 254 256 205 235 261 266 270 264 266 270 261 180 187 193 199 202 201 192 182 179 177 176 171 168 167 163 166 171 170 171 172 175 177 174 169 174 168 183 180 195 200 205 235 258 268 284 296
243 249 250 240 230 230 247 261 256 251 248 245 232 220 214 215 207 202 201 198 187 182 177 176 176 171 166 168 169 171 173 171 170 173 180 182 180 173 170 179 182 200 206 225 248 275 294 301 312
266 263 254 234 223 219 238 260 243 240 236 236 234 227 218 216 213 207 199 197 187 181 177 177 180 173 171 174 174 173 173 171 170 176 184 184 181 175 175 178 180 198 204 234 267 301 324 317 308
235 245 247 231 206 181 198 259 264 210 206 229 238 236 225 218 213 208 196 191 184 177 176 177 181 177 175 175 175 174 174 170 173 176 180 183 181 178 177 181 190 190 187 208 238 291 313 306 309
224 231 235 226 194 186 205 254 271 242 225 235 240 240 230 219 212 206 194 185 182 178 176 176 178 179 176 175 175 173 173 171 174 174 179 181 178 180 181 187 184 180 172 195 225 241 262 300 306
215 223 235 230 182 196 223 250 263 265 252 244 241 240 236 225 212 200 190 180 178 176 173 174 175 178 175 174 173 170 174 173 172 174 178 177 179 181 182 179 176 165 157 195 224 243 242 262 299
259 261 257 261 226 205 240 259 266 263 258 252 245 239 239 232 210 187 178 172 172 175 175 175 175 179 176 177 177 178 182 176 172 170 174 176 179 179 177 167 163 160 175 192 202 181 327 308 0
245 260 267 274 254 227 256 265 266 258 253 247 246 242 242 239 215 186 175 173 177 180 180 176 176 179 180 178 176 175 171 169 166 159 169 175 176 176 174 167 168 168 171 185 176 133 111 315 56
230 238 250 265 286 269 273 272 258 258 246 235 235 237 239 226 212 187 177 177 176 182 182 183 178 177 177 169 162 156 146 143 153 163 169 173 172 170 167 171 166 163 166 170 161 147 145 207 319
231 227 241 259 275 270 259 283 265 263 249 226 220 220 224 217 201 187 177 176 178 179 174 177 172 173 174 167 167 167 170 172 175 168 169 171 169 165 167 169 161 157 154 157 162 151 155 153 222
222 220 233 244 256 267 264 269 262 241 240 219 202 187 183 185 190 186 178 173 169 162 162 168 166 171 172 170 171 174 175 173 160 160 164 169 166 162 164 165 160 159 157 157 151 151 167 166 181
197 193 233 244 248 253 235 235 267 236 223 192 155 139 160 165 174 177 165 157 153 147 152 161 166 172 173 174 177 182 178 170 164 166 169 170 166 164 165 166 162 161 157 157 158 164 172 180 189
186 180 202 210 215 237 212 219 245 227 156 140 145 155 152 155 167 175 163 159 156 155 162 170 172 176 177 180 186 187 181 175 173 170 171 170 168 169 174 166 167 164 160 160 159 164 181 189 195
196 196 198 200 214 219 185 222 241 208 149 145 151 153 155 159 168 174 169 165 163 164 169 177 180 180 181 184 189 188 181 178 174 171 170 174 173 173 167 165 167 165 163 164 164 169 188 191 201
193 210 228 270 291 284 239 222 224 201 178 169 160 163 169 166 167 171 170 168 167 170 176 181 182 182 183 184 186 186 180 175 170 168 167 169 164 163 161 165 167 166 166 168 169 182 194 196 205
204 189 193 215 226 242 248 237 223 194 192 174 164 165 164 162 167 173 176 175 172 171 175 180 184 184 181 182 186 185 178 172 167 167 167 165 161 159 162 168 170 170 172 175 176 186 198 199 210
201 201 196 202 224 221 241 243 203 172 163 159 160 157 157 163 169 174 177 174 170 168 173 181 185 182 181 183 183 179 177 170 165 165 166 164 161 161 167 171 172 174 178 180 185 195 198 205 215
205 208 203 201 209 216 245 265 124 131 137 146 153 152 154 160 164 168 171 169 170 173 177 182 183 183 182 181 179 179 175 169 168 169 168 164 165 167 170 171 175 180 183 186 192 201 203 207 216
Height
1511 1514 1516 1519 1520 1520 1514 1502 1498 1502 1504 1507 1510 1511 1512 1515 1521 1533 1531 1530 1530 1531 1533 1535 1537 1539 1541 1543 1544 1545 1547 1547 1548 1549 1549 1550 1550 1550 1550 1550 1550 1550 1550 1550 1550 1550 1550 1549 1549
1511 1515 1518 1518 1519 1521 1511 1500 1501 1503 1507 1510 1512 1513 1513 1518 1522 1526 1529 1530 1530 1531 1533 1535 1537 1539 1541 1543 1545 1546 1547 1548 1549 1550 1550 1551 1551 1551 1551 1551 1551 1551 1551 1551 1551 1551 1551 1550 1550
1512 1516 1518 1514 1513 1512 1504 1498 1501 1504 1508 1511 1513 1513 1515 1520 1523 1526 1528 1529 1531 1532 1534 1535 1538 1540 1542 1543 1545 1546 1547 1549 1549 1550 1551 1551 1551 1552 1552 1552 1552 1552 1552 1552 1552 1552 1552 1552 1552
1515 1517 1515 1513 1509 1501 1498 1497 1500 1506 1510 1511 1512 1513 1517 1521 1523 1525 1527 1529 1531 1533 1534 1536 1538 1540 1542 1543 1545 1547 1548 1549 1550 1550 1551 1552 1552 1552 1552 1552 1553 1553 1553 1553 1553 1553 1553 1553 1553
1515 1515 1514 1512 1504 1497 1496 1499 1502 1505 1509 1511 1511 1512 1517 1521 1522 1525 1527 1529 1531 1532 1533 1536 1538 1540 1542 1543 1545 1547 1548 1549 1550 1551 1552 1552 1553 1553 1553 1553 1554 1554 1554 1554 1554 1554 1554 1554 1554
1515 1511 1513 1512 1502 1497 1498 1502 1504 1504 1506 1509 1512 1512 1518 1520 1522 1524 1527 1529 1531 1532 1533 1536 1538 1539 1541 1543 1545 1547 1548 1549 1550 1551 1552 1553 1553 1553 1554 1554 1554 1555 1555 1555 1555 1555 1555 1555 1556
1514 1511 1510 1503 1500 1499 1499 1502 1505 1505 1505 1508 1510 1512 1517 1519 1521 1523 1526 1529 1531 1532 1532 1535 1537 1539 1541 1543 1545 1546 1548 1549 1550 1551 1552 1553 1553 1554 1554 1555 1555 1555 1556 1556 1556 1556 1556 1556 1557
1512 1510 1506 1503 1500 1499 1499 1503 1505 1506 1506 1508 1510 1512 1515 1518 1520 1523 1526 1528 1530 1531 1532 1533 1536 1538 1540 1542 1544 1546 1547 1549 1550 1551 1552 1553 1554 1554 1555 1555 1556 1556 1556 1556 1557 1557 1557 1557 1557
1512 1513 1509 1501 1499 1498 1499 1503 1506 1507 1507 1508 1510 1512 1515 1517 1519 1521 1524 1527 1529 1530 1531 1532 1534 1536 1538 1540 1542 1545 1547 1548 1550 1551 1552 1553 1554 1555 1555 1556 1556 1557 1557 1557 1557 1557 1558 1558 1558
1510 1512 1505 1498 1497 1498 1500 1503 1505 1507 1508 1509 1510 1512 1514 1515 1517 1519 1521 1523 1525 1527 1529 1530 1532 1534 1536 1539 1541 1543 1545 1547 1549 1550 1552 1553 1554 1555 1555 1556 1556 1557 1557 1557 1557 1558 1558 1558 1557
1505 1505 1500 1499 1499 1501 1502 1503 1505 1506 1507 1507 1508 1509 1510 1512 1514 1516 1518 1520 1522 1524 1526 1528 1531 1533 1535 1537 1539 1541 1543 1545 1547 1549 1551 1552 1554 1555 1555 1556 1556 1557 1557 1557 1557 1558 1557 1557 1558
1502 1500 1499 1499 1501 1502 1504 1504 1504 1504 1505 1506 1506 1507 1508 1510 1511 1513 1515 1517 1519 1521 1523 1526 1528 1530 1533 1535 1537 1539 1541 1544 1546 1548 1550 1551 1553 1554 1555 1555 1556 1556 1557 1557 1557 1557 1557 1557 1557
1500 1499 1498 1499 1501 1502 1503 1503 1503 1502 1502 1503 1503 1504 1505 1507 1508 1510 1512 1514 1516 1518 1520 1522 1525 1527 1530 1532 1535 1537 1540 1542 1544 1546 1548 1550 1551 1553 1554 1555 1555 1556 1556 1556 1557 1557 1557 1557 1556
1496 1497 1497 1497 1499 1500 1501 1500 1500 1497 1499 1499 1500 1501 1502 1503 1504 1506 1508 1510 1512 1513 1516 1519 1521 1524 1527 1529 1532 1535 1537 1540 1542 1544 1546 1548 1550 1551 1553 1554 1554 1555 1555 1556 1556 1556 1556 1556 1555
1495 1496 1496 1494 1495 1497 1499 1499 1494 1493 1495 1496 1496 1497 1497 1498 1500 1501 1502 1505 1507 1509 1512 1514 1517 1520 1523 1526 1529 1532 1535 1537 1540 1542 1544 1546 1548 1550 1551 1552 1553 1553 1554 1554 1554 1554 1554 1553 1553
1494 1497 1499 1491 1491 1493 1501 1501 1489 1488 1490 1491 1491 1492 1492 1493 1494 1496 1497 1499 1502 1505 1507 1510 1513 1516 1519 1522 1526 1529 1532 1534 1537 1539 1542 1544 1546 1547 1549 1550 1551 1552 1552 1552 1552 1552 1552 1551 1550
1495 1498 1495 1489 1486 1488 1494 1494 1487 1486 1486 1486 1486 1486 1487 1487 1488 1490 1492 1494 1497 1499 1502 1505 1508 1512 1515 1519 1522 1526 1529 1531 1534 1537 1539 1541 1543 1545 1546 1548 1549 1549 1550 1550 1550 1550 1549 1549 1548
1493 1491 1488 1486 1481 1485 1489 1488 1484 1482 1482 1480 1480 1480 1481 1481 1482 1484 1486 1489 1491 1495 1497 1500 1504 1507 1511 1515 1519 1522 1525 1528 1531 1533 1536 1538 1540 1542 1544 1545 1546 1547 1547 1548 1547 1547 1547 1546 1545
1483 1484 1485 1480 1476 1482 1485 1483 1479 1476 1475 1474 1473 1473 1474 1475 1476 1478 1480 1483 1486 1490 1493 1495 1498 1502 1506 1510 1513 1517 1520 1524 1527 1530 1532 1535 1537 1539 1541 1542 1543 1544 1545 1545 1545 1545 1544 1544 1543
1482 1485 1484 1479 1475 1479 1482 1479 1472 1469 1467 1466 1466 1466 1468 1469 1470 1472 1474 1477 1480 1484 1487 1490 1493 1497 1501 1504 1508 1512 1517 1520 1523 1526 1529 1531 1533 1535 1537 1539 1540 1541 1542 1542 1542 1542 1542 1542 1541
1479 1482 1483 1483 1478 1477 1481 1478 1469 1461 1459 1459 1460 1461 1462 1463 1465 1467 1469 1472 1475 1478 1481 1485 1488 1492 1496 1500 1505 1510 1513 1517 1519 1522 1525 1527 1530 1532 1534 1536 1537 1538 1539 1539 1540 1540 1539 1539 1539
1477 1473 1477 1480 1486 1487 1481 1488 1469 1460 1455 1454 1454 1455 1457 1458 1460 1462 1464 1466 1469 1473 1477 1480 1484 1488 1492 1496 1500 1503 1506 1509 1513 1517 1520 1524 1526 1529 1531 1532 1534 1535 1536 1536 1537 1537 1537 1536 1536
1469 1470 1474 1478 1484 1488 1483 1487 1469 1455 1454 1450 1450 1451 1452 1454 1456 1457 1459 1461 1465 1468 1472 1476 1480 1483 1487 1491 1495 1499 1502 1506 1510 1513 1516 1519 1522 1525 1527 1529 1530 1532 1533 1533 1534 1534 1534 1533 1533
1465 1471 1475 1477 1484 1492 1479 1482 1469 1454 1448 1446 1446 1448 1449 1451 1452 1454 1456 1458 1461 1464 1467 1472 1475 1479 1483 1487 1491 1495 1498 1502 1506 1508 1512 1515 1518 1520 1523 1525 1527 1528 1529 1530 1530 1530 1530 1530 1530
1463 1476 1489 1492 1494 1485 1465 1468 1459 1442 1439 1441 1443 1445 1447 1448 1449 1451 1452 1454 1456 1459 1463 1467 1471 1474 1478 1482 1486 1491 1494 1498 1501 1504 1507 1510 1513 1515 1518 1521 1523 1524 1525 1526 1526 1527 1527 1526 1526
1458 1465 1478 1485 1481 1467 1461 1463 1448 1435 1435 1437 1440 1443 1445 1446 1446 1448 1449 1451 1453 1456 1459 1463 1467 1470 1474 1478 1482 1486 1490 1494 1497 1500 1503 1506 1508 1511 1514 1517 1518 1520 1521 1522 1522 1522 1522 1522 1522
1454 1458 1456 1465 1464 1469 1460 1446 1438 1432 1433 1435 1438 1440 1442 1443 1444 1445 1447 1448 1450 1453 1456 1459 1463 1466 1470 1473 1478 1482 1486 1490 1493 1496 1499 1502 1504 1507 1510 1512 1514 1515 1517 1518 1518 1518 1518 1518 1517
1441 1448 1459 1466 1474 1477 1459 1450 1443 1434 1433 1433 1435 1437 1439 1441 1442 1443 1444 1446 1448 1450 1453 1457 1460 1463 1466 1470 1474 1478 1481 1485 1488 1492 1494 1497 1500 1503 1505 1507 1509 1511 1512 1513 1513 1513 1513 1513 1513
1440 1444 1446 1453 1455 1463 1462 1447 1421 1423 1426 1429 1432 1434 1436 1438 1439 1441 1442 1444 1446 1448 1450 1453 1456 1460 1462 1466 1470 1473 1477 1481 1484 1487 1489 1492 1495 1498 1500 1502 1504 1506 1507 1508 1508 1508 1508 1508 1508
1429 1431 1437 1449 1449 1447 1453 1444 1416 1418 1421 1425 1429 1432 1434 1435 1437 1438 1440 1442 1443 1445 1447 1450 1453 1456 1458 1462 1465 1469 1473 1476 1479 1482 1485 1488 1490 1493 1495 1497 1499 1500 1501 1502 1503 1503 1503 1503 1502